Weather in Morskoe

Russia / Republic of Crimea     44°49′42″N   34°48′13″E
temp.,
°C
wind,
m/s
gust,
m/s
humid.,
%
clouds,
%
prec.,
mm/h
press.,
hPa
HPBL,
m
25 february, thu
thu2500:000ne445629 0.0 1036243
03:00+1ne225632 0.0 1035221
06:00+1ese11562 0.0 1036247
09:00+2sse125818 0.0 1036297
12:00+3s336588 0.0 1035386
15:00+5ssw447271 0.0 1034514
18:00+5sw458057 0.0 1033470
21:00+5sw458167 0.0 1033324
26 february, fri
fri2600:00+5wsw227845 0.0 1032239
03:00+6ne017852 0.0 1032146
06:00+6n007946 0.0 103081
09:00+7ssw117743 0.0 1031116
12:00+8ssw337544 0.0 1030284
15:00+8sw558326 0.0 1028284
18:00+8ssw44897 0.0 1027110
21:00+8sw44909 0.0 1026102
27 february, sat
sat2700:00+7sw569014 0.0 1025236
03:00+7sw568815 0.0 1024226
06:00+6sw56859 0.0 1022185
09:00+8sw56814 0.0 1021188
12:00+8ssw78820 0.0 1020335
15:00+9ssw67835 0.0 1019264
18:00+9ssw348544 0.0 1017113
21:00+9nne128469 0.0 101736
28 february, sun
sun2800:00+8nne3486100 0.9 1017211
03:00+6n698698 1.4 1017502
06:00+5nnw5106643 0.0 1017947
09:00+5nw586722 0.1 10181149
12:00+5wnw576165 0.0 10191218
15:00+5nw346770 0.1 1020916
18:00+5nnw466367 0.1 1021962
21:00+4nnw357365 0.2 1023616
1 march, mon
mon100:00+3n467998 0.1 1024629
03:00+3nnw467172 0.2 1025724
06:00+3nnw346845 0.0 1027796
09:00+3n346771 0.1 1028620
12:00+4n335710 0.0 1030947
15:00+4n225628 0.1 10301069
18:00+4nnw136393 0.1 1031860
21:00+2nne347385 0.1 1033570